| time (UTC) | temp F | wind direction | speed MPH | gust MPH | rain 1hr in | rain 24hr in | rain mn in | humidity % | barometer mb |
| 20260904143112 | 85 | 238 | 1.0 | 22.0 | 0.00 | 0.00 | 0.00 | 37 | 1013.6 |
| 20260904141549 | 84 | 254 | 7.0 | 24.0 | 0.00 | 0.00 | 0.00 | 38 | 1013.8 |
| 20260904140054 | 84 | 277 | 12.0 | 13.0 | 0.00 | 0.00 | 0.00 | 38 | 1014.0 |
| 20260904134558 | 84 | 360 | 7.0 | 19.0 | 0.00 | 0.00 | 0.00 | 37 | 1014.0 |
| 20260904133106 | 84 | 321 | 4.0 | 13.0 | 0.00 | 0.00 | 0.00 | 36 | 1014.1 |
| 20260904131602 | 84 | 188 | 2.0 | 10.0 | 0.00 | 0.00 | 0.00 | 38 | 1014.3 |
| 20260904130108 | 84 | 360 | 2.0 | 12.0 | 0.00 | 0.00 | 0.00 | 38 | 1014.5 |
| 20260904124552 | 83 | 271 | 4.0 | 0.0 | 0.00 | 0.00 | 0.00 | 38 | 1014.6 |
| 20260904123053 | 83 | 360 | 1.0 | 12.0 | 0.00 | 0.00 | 0.00 | 38 | 1014.9 |
| 20260904121547 | 82 | 158 | 1.0 | 2.0 | 0.00 | 0.00 | 0.00 | 38 | 1015.1 |
| 20260904120105 | 82 | 271 | 7.0 | 18.0 | 0.00 | 0.00 | 0.00 | 38 | 1015.3 |
| 20260904114554 | 83 | 269 | 2.0 | 14.0 | 0.00 | 0.00 | 0.00 | 40 | 1015.2 |
| 20260904113056 | 82 | 0 | 2.0 | 11.0 | 0.00 | 0.00 | 0.00 | 41 | 1015.6 |
| 20260904111550 | 82 | 360 | 10.0 | 16.0 | 0.00 | 0.00 | 0.00 | 41 | 1015.9 |
| 20260904110057 | 81 | 230 | 6.0 | 13.0 | 0.00 | 0.00 | 0.00 | 41 | 1016.2 |
| 20260904104552 | 80 | 298 | 2.0 | 0.0 | 0.00 | 0.00 | 0.00 | 40 | 1016.4 |
| 20260904103050 | 80 | 254 | 9.0 | 11.0 | 0.00 | 0.00 | 0.00 | 42 | 1016.7 |
| 20260904101557 | 80 | 234 | 2.0 | 12.0 | 0.00 | 0.00 | 0.00 | 43 | 1016.9 |
| 20260904100051 | 78 | 360 | 3.0 | 15.0 | 0.00 | 0.00 | 0.00 | 43 | 1017.1 |
| 20260904094554 | 79 | 360 | 8.0 | 12.0 | 0.00 | 0.00 | 0.00 | 44 | 1017.3 |
| 20260904093049 | 77 | 163 | 1.0 | 12.0 | 0.00 | 0.00 | 0.00 | 46 | 1017.5 |
| 20260904091557 | 76 | 277 | 2.0 | 11.0 | 0.00 | 0.00 | 0.00 | 45 | 1017.7 |
| 20260904090054 | 76 | 0 | 2.0 | 13.0 | 0.00 | 0.00 | 0.00 | 47 | 1017.9 |
| 20260904084559 | 74 | 360 | 1.0 | 13.0 | 0.00 | 0.00 | 0.00 | 49 | 1017.9 |
| 20260904083049 | 74 | 0 | 4.0 | 13.0 | 0.00 | 0.00 | 0.00 | 50 | 1018.2 |
| 20260904081553 | 73 | 138 | 1.0 | 9.0 | 0.00 | 0.00 | 0.00 | 51 | 1018.1 |
| 20260904080118 | 72 | 210 | 1.0 | 9.0 | 0.00 | 0.00 | 0.00 | 54 | 1018.1 |
| 20260904074557 | 71 | 360 | 2.0 | 8.0 | 0.00 | 0.00 | 0.00 | 54 | 1018.2 |
| 20260904073057 | 69 | 196 | 2.0 | 9.0 | 0.00 | 0.00 | 0.00 | 57 | 1018.3 |
| 20260904071552 | 67 | 0 | 0.0 | 10.0 | 0.00 | 0.00 | 0.00 | 59 | 1018.3 |
| 20260904070058 | 65 | 276 | 1.0 | 7.0 | 0.00 | 0.00 | 0.00 | 63 | 1018.4 |
| 20260904064557 | 64 | 0 | 0.0 | 5.0 | 0.00 | 0.00 | 0.00 | 66 | 1018.4 |
| 20260904063112 | 63 | 190 | 0.0 | 3.0 | 0.00 | 0.00 | 0.00 | 66 | 1018.2 |
| 20260904061551 | 62 | 0 | 0.0 | 3.0 | 0.00 | 0.00 | 0.00 | 67 | 1018.2 |
| 20260904060055 | 62 | 0 | 0.0 | 3.0 | 0.00 | 0.00 | 0.00 | 67 | 1018.2 |
| 20260904054553 | 62 | 0 | 0.0 | 0.0 | 0.00 | 0.00 | 0.00 | 66 | 1018.3 |
| 20260904053105 | 62 | 0 | 0.0 | 0.0 | 0.00 | 0.00 | 0.00 | 65 | 1018.3 |
| 20260904051553 | 62 | 0 | 0.0 | 0.0 | 0.00 | 0.00 | 0.00 | 64 | 1018.3 |
| 20260904050056 | 63 | 0 | 0.0 | 0.0 | 0.00 | 0.00 | 0.00 | 64 | 1018.3 |
| 20260904044547 | 63 | 0 | 0.0 | 0.0 | 0.00 | 0.00 | 0.00 | 64 | 1018.3 |
| 20260904043059 | 63 | 0 | 0.0 | 0.0 | 0.00 | 0.00 | 0.00 | 63 | 1018.4 |
| 20260904041553 | 64 | 0 | 0.0 | 0.0 | 0.00 | 0.00 | 0.00 | 63 | 1018.4 |
| 20260904040057 | 64 | 202 | 0.0 | 0.0 | 0.00 | 0.00 | 0.00 | 63 | 1018.6 |
| 20260904034604 | 64 | 0 | 0.0 | 0.0 | 0.00 | 0.00 | 0.00 | 63 | 1018.7 |
| 20260904033059 | 64 | 0 | 0.0 | 0.0 | 0.00 | 0.00 | 0.00 | 62 | 1018.9 |
| 20260904031555 | 64 | 0 | 0.0 | 2.0 | 0.00 | 0.00 | 0.00 | 62 | 1018.7 |
| 20260904030058 | 64 | 0 | 0.0 | 1.0 | 0.00 | 0.00 | 0.00 | 62 | 1018.8 |
| 20260904024552 | 64 | 0 | 0.0 | 0.0 | 0.00 | 0.00 | 0.00 | 62 | 1018.9 |
| 20260904023051 | 64 | 0 | 0.0 | 3.0 | 0.00 | 0.00 | 0.00 | 62 | 1019.1 |
| 20260904021608 | 63 | 0 | 0.0 | 6.0 | 0.00 | 0.00 | 0.00 | 62 | 1019.1 |
| 20260904020056 | 63 | 0 | 0.0 | 2.0 | 0.00 | 0.00 | 0.00 | 62 | 1019.1 |
| 20260904014605 | 63 | 0 | 0.0 | 0.0 | 0.00 | 0.00 | 0.00 | 63 | 1019.2 |
| 20260904013113 | 63 | 0 | 0.0 | 2.0 | 0.00 | 0.00 | 0.00 | 63 | 1019.3 |
| 20260904011632 | 63 | 0 | 0.0 | 1.0 | 0.00 | 0.00 | 0.00 | 64 | 1019.4 |
| 20260904010052 | 62 | 0 | 0.0 | 2.0 | 0.00 | 0.00 | 0.00 | 65 | 1019.5 |
| 20260904004546 | 62 | 198 | 0.0 | 4.0 | 0.00 | 0.00 | 0.00 | 67 | 1019.4 |
| 20260904003050 | 61 | 0 | 0.0 | 4.0 | 0.00 | 0.00 | 0.00 | 69 | 1019.4 |
| 20260904001551 | 61 | 0 | 0.0 | 1.0 | 0.00 | 0.00 | 0.00 | 71 | 1019.5 |
| 20260903234545 | 61 | 0 | 0.0 | 0.0 | 0.00 | 0.00 | 0.00 | 72 | 1019.9 |
| 20260903233053 | 60 | 0 | 0.0 | 0.0 | 0.00 | 0.00 | 0.00 | 72 | 1020.0 |
| 20260903231550 | 60 | 0 | 0.0 | 0.0 | 0.00 | 0.00 | 0.00 | 72 | 1020.0 |
| 20260903230052 | 61 | 0 | 0.0 | 0.0 | 0.00 | 0.00 | 0.00 | 71 | 1020.1 |
| 20260903224558 | 61 | 0 | 0.0 | 0.0 | 0.00 | 0.00 | 0.00 | 71 | 1020.1 |
| 20260903223048 | 61 | 0 | 0.0 | 0.0 | 0.00 | 0.00 | 0.00 | 71 | 1020.1 |
| 20260903221551 | 61 | 0 | 0.0 | 0.0 | 0.00 | 0.00 | 0.00 | 71 | 1020.2 |
| 20260903220056 | 61 | 0 | 0.0 | 0.0 | 0.00 | 0.00 | 0.00 | 69 | 1020.3 |
| 20260903214603 | 61 | 0 | 0.0 | 0.0 | 0.00 | 0.00 | 0.00 | 69 | 1020.2 |
| 20260903213052 | 61 | 0 | 0.0 | 0.0 | 0.00 | 0.00 | 0.00 | 67 | 1020.2 |
| 20260903211553 | 62 | 0 | 0.0 | 0.0 | 0.00 | 0.00 | 0.00 | 67 | 1020.1 |
| 20260903210123 | 62 | 0 | 0.0 | 0.0 | 0.00 | 0.00 | 0.00 | 67 | 1019.8 |
| 20260903204603 | 63 | 0 | 0.0 | 0.0 | 0.00 | 0.00 | 0.00 | 66 | 1020.0 |
| 20260903203053 | 64 | 0 | 0.0 | 0.0 | 0.00 | 0.00 | 0.00 | 65 | 1020.3 |
| 20260903201550 | 64 | 0 | 0.0 | 0.0 | 0.00 | 0.00 | 0.00 | 63 | 1020.4 |
| 20260903200116 | 65 | 0 | 0.0 | 0.0 | 0.00 | 0.00 | 0.00 | 61 | 1019.9 |
| 20260903194556 | 66 | 0 | 0.0 | 3.0 | 0.00 | 0.00 | 0.00 | 61 | 1019.7 |
| 20260903193056 | 66 | 0 | 0.0 | 0.0 | 0.00 | 0.00 | 0.00 | 59 | 1019.6 |
| 20260903191600 | 67 | 0 | 0.0 | 0.0 | 0.00 | 0.00 | 0.00 | 58 | 1019.5 |
| 20260903190054 | 68 | 0 | 0.0 | 2.0 | 0.00 | 0.00 | 0.00 | 57 | 1019.5 |
| 20260903184557 | 69 | 0 | 0.0 | 0.0 | 0.00 | 0.00 | 0.00 | 55 | 1019.4 |
| 20260903183054 | 69 | 0 | 0.0 | 2.0 | 0.00 | 0.00 | 0.00 | 54 | 1019.3 |
| 20260903181554 | 70 | 0 | 0.0 | 1.0 | 0.00 | 0.00 | 0.00 | 53 | 1019.2 |
| 20260903180053 | 71 | 0 | 0.0 | 6.0 | 0.00 | 0.00 | 0.00 | 52 | 1019.1 |
| 20260903174600 | 71 | 0 | 0.0 | 3.0 | 0.00 | 0.00 | 0.00 | 52 | 1018.9 |
| 20260903173049 | 71 | 0 | 0.0 | 0.0 | 0.00 | 0.00 | 0.00 | 51 | 1018.9 |
| 20260903171609 | 72 | 0 | 0.0 | 2.0 | 0.00 | 0.00 | 0.00 | 50 | 1018.9 |
| 20260903170056 | 72 | 0 | 0.0 | 5.0 | 0.00 | 0.00 | 0.00 | 49 | 1018.9 |
| 20260903164548 | 73 | 0 | 0.0 | 8.0 | 0.00 | 0.00 | 0.00 | 47 | 1019.0 |
| 20260903163053 | 73 | 0 | 0.0 | 10.0 | 0.00 | 0.00 | 0.00 | 47 | 1018.9 |
| 20260903161555 | 74 | 273 | 3.0 | 13.0 | 0.00 | 0.00 | 0.00 | 47 | 1019.0 |
| 20260903160051 | 74 | 237 | 2.0 | 13.0 | 0.00 | 0.00 | 0.00 | 47 | 1019.1 |
| 20260903154551 | 76 | 273 | 6.0 | 13.0 | 0.00 | 0.00 | 0.00 | 46 | 1019.0 |
| 20260903153106 | 76 | 360 | 9.0 | 0.0 | 0.00 | 0.00 | 0.00 | 45 | 1018.9 |
| 20260903151607 | 75 | 360 | 3.0 | 11.0 | 0.00 | 0.00 | 0.00 | 47 | 1018.9 |
| 20260903150100 | 75 | 283 | 6.0 | 14.0 | 0.00 | 0.00 | 0.00 | 45 | 1019.0 |
| 20260903144551 | 76 | 258 | 5.0 | 11.0 | 0.00 | 0.00 | 0.00 | 46 | 1019.1 |